Weather History for Roatan, Honduras

Change the Weather History Date:

Friday, November 2, 2012

  Actual Average Record
Temperature  
Mean Temperature 77 °F -  
Max Temperature 82 °F 82 °F 89 °F (1997)
Min Temperature 72 °F 74 °F 69 °F (2014)
Cooling Degree Days 12    
Growing Degree Days 27 (Base 50)    
Moisture  
Dew Point 71 °F    
Average Humidity 81    
Maximum Humidity 89    
Minimum Humidity 65    
Precipitation  
Precipitation 0.20 in - - ()
Sea Level Pressure  
Sea Level Pressure 29.98 in    
Wind  
Wind Speed 8 mph ()    
Max Wind Speed 16 mph    
Max Gust Speed -    
Visibility 5.6 miles    
Events Rain    
Averages and records for this station are not official NWS values.
T = Trace of Precipitation, MM = Missing Value Source: Averaged Metar Reports

Daily Weather History Graph

Daily Weather History Graph

Search for Another Location

Airport:

Trip Planner

Search our weather history database for the weather conditions in past years. The results will help you decide how hot, cold, wet, or windy it might be!

Date:

Astronomy

Nov. 02, 2012 Rise Set
Actual Time 5:43 AM CST 5:15 PM CST
Civil Twilight 5:21 AM CST 5:37 PM CST
Nautical Twilight 4:56 AM CST 6:03 PM CST
Astronomical Twilight 4:30 AM CST 6:28 PM CST
Moon 8:18 PM CST (11/2) 8:46 AM CST (11/2)
Length of Visible Light 12h 15m
Length of Day
11h 31m
Waning Gibbous, 87% of the Moon is Illuminated
Nov 2
Waning Gibbous
Nov 6
Last Quarter
Nov 13
New
Nov 20
First Quarter
Nov 28
Full

Hourly Weather History & Observations

Time (CST) Temp. Heat Index Dew Point Humidity Pressure Visibility Wind Dir Wind Speed Gust Speed Precip Events Conditions
6:00 AM 75 °F - 71 °F 82% 29.99 in 3 mi ESE 16.1 mph - - Rain Light Drizzle
6:00 AM - - - N/A% 29.98 in 3.1 mi ESE 16.1 mph - N/A   Light Drizzle
7:00 AM 75.2 °F - 69.8 °F 83% 30.01 in 5.0 mi East 10.4 mph - N/A   Light Drizzle
8:00 AM 78.8 °F - 71.6 °F 78% 30.01 in 6.2 mi East 5.8 mph - N/A   Mostly Cloudy
9:00 AM 78.8 °F - 71.6 °F 78% 30.01 in 6.2 mi East 2.3 mph - N/A   Mostly Cloudy
10:00 AM 80.6 °F 84.6 °F 71.6 °F 74% 30.04 in 6.2 mi SE 11.5 mph - N/A   Mostly Cloudy
11:00 AM 80.6 °F 84.6 °F 71.6 °F 74% 30.01 in 6.2 mi SSE 8.1 mph - N/A   Mostly Cloudy
12:00 PM 82 °F - 72 °F 65% 29.99 in 9 mi South 6.9 mph - -   Haze
12:00 PM 82.4 °F 87.2 °F 71.6 °F 70% 29.98 in 6.2 mi South 6.9 mph - N/A   Mostly Cloudy
1:00 PM 77.0 °F - 71.6 °F 83% 29.95 in - ENE 13.8 mph - N/A   Light Drizzle
2:00 PM 75.2 °F - 71.6 °F 89% 29.95 in 6.2 mi ENE 5.8 mph - N/A   Mostly Cloudy
3:00 PM 77 °F - 72 °F 81% 29.94 in 6 mi East 11.5 mph - -   Partly Cloudy
3:00 PM 77.0 °F - 71.6 °F 83% 29.95 in 6.2 mi East 11.5 mph - N/A   Mostly Cloudy
4:00 PM 75.2 °F - 69.8 °F 83% 29.95 in 5.0 mi ENE 11.5 mph - N/A   Overcast
5:00 PM 75.2 °F - 71.6 °F 89% 29.95 in 4.3 mi East 6.9 mph - N/A   Mostly Cloudy
6:00 PM 75 °F - 70 °F 81% 29.96 in 5 mi ENE 5.8 mph - -   Overcast
6:00 PM 75.2 °F - 69.8 °F 83% 29.95 in 5.0 mi ENE 5.8 mph - N/A   Overcast
7:00 PM 75.2 °F - 71.6 °F 89% 29.95 in 6.2 mi Calm Calm - N/A   Overcast
8:00 PM 75.2 °F - 71.6 °F 89% 30.01 in 6.2 mi Calm Calm - N/A   Mostly Cloudy